Temperature
17 17 16 16 16 16 16 16 16 15 16 16 16 16 16 16 16 16 16 16 16 16 16 16 16 16 16 15 15 15 15 15 15 14 14 14 14 14
17 16 16 16 16 16 16 16 15 15 15 15 16 16 16 16 16 16 16 16 16 16 16 16 15 15 15 15 15 15 15 14 14 14 14 14 14 14
16 16 16 16 16 16 16 15 15 15 15 15 15 15 15 15 15 15 15 15 15 15 15 15 15 15 15 15 15 14 14 14 14 14 14 14 13 13
16 16 16 16 16 16 15 15 15 15 15 15 15 15 15 15 15 15 15 15 15 15 15 15 15 15 14 14 14 14 14 14 14 13 13 13 13 13
16 16 16 15 15 15 15 15 15 15 15 15 15 14 14 14 14 14 14 14 14 14 14 14 14 14 14 14 14 14 14 13 13 13 13 13 13 13
16 16 15 15 15 15 15 15 15 15 14 14 14 14 14 14 14 14 14 14 14 14 14 14 14 14 14 13 13 13 13 13 13 13 13 13 12 12
16 16 15 15 15 15 15 15 14 14 14 14 14 14 14 14 14 14 14 14 13 13 13 13 13 13 13 13 13 13 13 13 13 12 12 12 12 12
16 16 15 15 15 15 14 14 14 14 14 14 13 13 13 13 13 13 13 13 13 13 13 13 12 12 12 12 12 12 12 12 12 12 12 12 12 11
16 15 15 15 15 14 14 14 14 13 13 13 13 13 13 13 13 13 13 12 12 12 12 12 12 12 12 12 12 12 12 12 11 11 11 11 11 11
15 15 15 15 14 14 14 13 13 13 13 13 12 12 12 12 12 12 12 12 12 12 12 11 12 12 11 11 11 11 11 11 11 11 11 10 10 10
15 15 14 14 14 14 13 13 13 13 13 12 12 12 12 12 12 12 12 12 12 12 11 11 11 11 11 11 11 11 11 11 10 10 10 10 10 10
14 14 14 14 13 13 13 13 13 12 12 12 12 12 12 12 12 11 11 11 11 11 11 11 11 10 10 11 10 10 10 10 10 10 10 9 9 9
14 13 13 13 13 12 12 12 12 12 12 12 12 12 12 11 11 11 11 11 11 10 10 10 10 10 10 10 10 10 10 10 10 9 9 9 9 9
13 13 13 12 12 12 12 12 12 12 11 11 11 11 11 11 11 11 10 10 10 10 10 10 10 10 9 9 9 10 9 9 9 9 9 9 9 8
13 12 12 12 12 12 11 11 11 11 11 11 11 11 10 10 10 10 10 10 10 9 9 9 9 9 9 9 9 9 9 9 9 9 8 8 8 8
12 12 12 11 11 11 11 11 11 11 10 10 10 10 10 10 10 10 10 9 9 9 9 9 9 9 9 8 8 8 8 8 8 8 8 8 8 8
12 12 11 11 11 10 10 10 10 10 10 10 10 9 9 9 9 9 9 9 9 9 9 9 8 8 8 8 8 8 8 8 8 8 8 8 8 7
11 11 11 11 10 10 10 9 9 9 9 9 9 9 9 9 9 9 8 8 8 8 8 8 8 8 8 8 8 7 7 7 7 7 7 7 7 7
11 10 10 10 9 9 9 9 9 9 8 8 8 8 8 8 8 8 8 8 8 8 8 8 7 7 7 7 7 7 7 7 7 7 7 7 7 7
10 10 9 9 9 9 9 8 8 8 8 8 8 8 8 8 7 7 7 7 7 7 7 7 7 7 7 7 7 7 7 7 7 7 7 6 6 6
9 9 9 9 8 8 8 8 8 8 8 7 7 7 7 7 7 7 7 7 7 7 7 7 7 7 7 7 6 6 7 6 6 6 6 6 6 6
9 9 8 8 8 8 8 7 7 7 7 7 7 7 6 6 6 6 6 6 6 6 6 6 6 6 6 6 6 6 6 6 6 6 6 6 6 6
8 8 8 8 8 8 7 7 7 7 7 7 6 6 6 6 6 6 6 6 6 6 6 6 6 6 6 6 6 6 6 6 6 6 6 6 6 6
Wind_Speed
4 4 4 4 4 5 4 4 4 5 5 4 3 2 3 4 5 5 6 7 8 9 9 9 10 10 11 11 11 11 12 13 13 13 13 12 13 13
3 3 3 3 3 3 3 4 5 5 5 3 3 2 2 3 4 4 5 6 7 7 7 7 7 8 8 9 10 10 10 11 11 11 11 12 12 12
2 2 3 2 2 2 2 3 3 4 6 4 2 2 2 3 3 3 3 3 3 4 5 5 5 5 6 7 7 8 8 9 9 9 9 10 10 10
2 2 2 2 2 2 2 3 3 4 4 5 3 2 3 2 2 2 2 2 1 1 3 3 4 4 4 5 6 6 6 6 7 7 8 9 9 9
2 1 2 1 2 2 2 2 2 3 3 3 3 2 2 1 1 1 1 1 1 0 1 1 2 2 3 3 4 4 4 5 5 6 7 7 8 8
0 1 1 2 2 2 2 2 2 2 2 2 2 2 2 1 1 1 1 1 1 1 1 1 0 1 1 2 3 3 3 3 4 5 5 6 7 7
0 0 1 2 2 2 2 2 2 1 1 1 2 1 2 1 1 1 1 1 1 0 1 1 1 1 1 1 1 0 0 1 2 3 4 5 5 6
0 1 1 2 3 2 2 2 1 1 1 2 2 2 3 2 1 1 1 1 1 0 0 1 0 0 1 1 1 1 1 2 2 3 4 5 5 6
0 1 1 2 2 2 2 2 2 3 1 1 2 2 2 2 1 1 1 1 1 1 1 1 1 1 1 1 0 1 2 2 3 3 4 4 5 6
0 0 1 2 2 2 1 2 2 2 2 1 1 2 2 1 1 2 2 1 0 0 0 1 1 2 1 1 1 1 1 2 3 4 4 4 4 5
1 1 1 2 3 2 1 1 2 3 3 2 1 1 2 2 1 1 1 1 1 1 0 1 1 1 1 2 1 2 3 3 4 4 4 4 4 5
1 1 2 2 3 3 1 1 1 3 3 3 3 3 3 2 2 1 1 1 0 1 1 1 1 0 1 1 1 1 2 3 4 4 5 5 4 4
1 0 1 3 3 3 2 1 1 1 1 2 2 3 3 2 2 1 0 1 1 1 1 1 1 1 1 1 1 1 1 1 2 3 4 5 6 5
1 0 0 2 2 2 2 1 1 2 2 2 2 2 2 2 2 2 1 1 1 2 1 2 1 1 1 1 1 1 2 2 2 2 2 4 5 6
1 2 2 2 2 2 3 3 3 2 2 2 1 2 2 2 2 2 1 1 1 1 1 1 1 1 1 2 1 1 1 2 2 2 2 2 3 3
1 2 4 4 3 3 3 3 3 2 1 1 2 2 2 2 2 2 1 1 1 1 1 0 1 1 2 2 2 2 2 2 2 2 2 2 3 4
3 2 3 2 3 3 3 3 3 2 2 2 2 2 2 2 2 2 1 1 1 1 2 2 2 1 2 2 2 3 2 2 2 2 2 2 3 4
4 3 2 2 1 1 2 2 2 2 2 2 2 2 2 2 2 2 1 1 1 2 2 1 1 1 1 2 3 3 3 3 2 1 2 3 4 4
4 2 2 1 1 1 1 1 1 1 1 1 1 2 2 2 2 3 3 2 2 2 2 1 1 0 2 4 3 3 3 3 2 2 2 3 4 4
2 2 2 1 1 1 0 0 1 1 1 2 2 2 2 2 2 3 3 3 3 3 3 2 1 2 3 4 3 3 4 3 3 3 3 3 4 4
2 2 2 2 1 1 0 0 0 1 1 1 1 2 2 2 2 3 3 3 3 3 3 4 4 4 3 2 2 3 3 5 6 4 3 3 3 3
3 2 2 2 1 1 1 0 1 1 1 1 1 2 2 2 3 3 3 3 3 3 4 4 3 2 1 2 4 4 4 3 4 7 7 6 3 3
3 2 2 2 1 1 1 0 0 0 1 1 1 2 2 2 3 3 3 3 3 4 4 4 3 3 3 3 4 4 5 4 3 3 3 6 10 10
Wind_Direction
247 245 246 247 237 234 230 228 238 263 266 243 237 242 242 248 258 259 255 255 252 249 244 243 242 239 238 238 239 241 243 242 239 237 237 238 233 229
255 253 259 262 248 239 234 236 233 239 257 250 238 253 248 266 272 268 265 267 258 250 247 241 238 237 238 238 238 239 239 239 237 234 233 232 228 228
279 267 276 275 267 259 242 237 237 237 254 269 251 266 253 267 288 283 280 279 274 251 241 232 232 235 241 245 242 236 234 233 231 229 231 229 226 224
281 282 289 298 293 291 271 256 246 235 242 264 271 263 260 269 274 276 288 285 286 260 222 220 221 229 237 241 241 240 237 233 230 227 226 222 219 220
260 265 285 289 298 296 284 278 270 256 240 246 261 251 257 273 277 286 294 308 324 315 176 191 214 231 243 248 247 245 238 231 224 219 217 212 209 209
274 278 302 301 298 299 289 280 276 268 249 249 260 263 265 274 256 293 317 326 316 10 29 54 109 171 262 282 265 250 236 219 212 207 200 195 195 198
27 338 314 314 309 306 307 293 271 255 254 255 270 286 281 295 284 268 283 312 303 357 349 18 50 43 28 7 352 340 197 193 198 191 182 182 184 186
144 331 344 346 346 352 1 8 9 261 256 254 255 269 270 273 277 257 244 301 282 342 295 308 99 31 346 354 11 101 115 132 150 155 157 164 171 174
141 334 339 350 351 345 350 11 21 23 22 261 271 276 279 276 263 256 246 247 253 265 238 259 256 258 282 313 227 159 143 146 151 154 159 163 166 170
93 346 327 332 345 340 352 20 15 8 355 321 270 287 297 299 250 240 234 229 251 359 198 238 271 268 279 277 255 206 197 186 176 169 166 166 172 181
55 39 16 349 353 25 73 13 354 344 359 22 25 345 1 43 82 108 96 119 281 262 239 225 245 274 261 258 250 236 226 211 196 185 179 177 181 187
52 37 40 34 25 52 87 69 347 333 348 8 19 24 22 33 57 104 169 158 311 258 222 223 219 220 259 247 261 256 243 230 211 202 196 189 187 187
159 27 21 38 45 56 72 64 313 332 16 29 25 23 23 19 11 6 287 204 213 242 207 195 212 215 236 259 262 246 245 249 237 235 220 211 205 196
183 181 61 60 63 65 66 45 51 68 68 53 32 12 5 355 340 330 325 293 274 271 224 191 200 206 220 255 268 271 255 240 236 239 228 215 216 219
156 131 106 95 87 70 51 49 55 63 61 44 8 339 331 327 342 349 353 1 17 21 146 203 226 211 220 237 260 275 270 258 235 240 237 225 217 212
100 97 94 86 78 68 50 43 40 42 47 23 345 340 345 357 6 6 4 358 356 348 7 354 243 224 239 255 245 260 250 243 246 240 231 239 230 218
126 90 74 67 58 49 43 38 34 37 33 17 10 6 2 1 358 358 6 15 13 339 336 343 331 279 252 246 256 257 264 269 258 236 228 245 249 235
115 105 95 90 79 53 45 32 24 17 7 6 7 5 355 348 347 350 347 332 307 304 306 321 350 359 337 279 235 256 266 275 277 245 236 247 259 253
111 121 121 122 109 81 48 26 5 357 3 9 2 360 355 351 350 349 347 336 323 313 312 315 298 263 293 301 291 225 253 279 279 271 255 248 259 262
129 143 151 148 141 131 97 336 352 20 25 13 2 359 358 349 346 344 341 330 320 316 321 324 291 267 261 277 287 289 242 248 258 262 265 262 265 262
161 159 167 164 160 156 191 294 5 18 16 10 3 357 350 343 334 331 330 327 321 319 316 313 303 289 273 262 277 291 286 244 238 246 248 256 267 266
170 172 178 173 166 157 161 96 34 16 8 0 348 344 338 328 321 324 329 326 318 311 305 309 324 329 306 278 283 290 297 300 263 245 234 225 231 243
177 177 180 179 170 164 160 135 122 324 336 332 327 324 322 317 311 313 315 312 312 315 318 324 329 325 308 285 286 292 296 302 303 292 270 247 243 250
Height
1541 1540 1540 1539 1539 1538 1538 1538 1537 1535 1533 1533 1533 1533 1533 1532 1532 1531 1531 1531 1531 1531 1532 1532 1533 1533 1533 1533 1533 1534 1534 1535 1535 1536 1537 1537 1538 1538
1537 1537 1536 1535 1535 1534 1534 1533 1533 1532 1530 1528 1529 1529 1528 1528 1527 1527 1527 1527 1527 1527 1527 1527 1527 1528 1528 1528 1528 1528 1528 1528 1529 1530 1530 1531 1532 1533
1535 1534 1533 1532 1531 1530 1530 1529 1528 1528 1526 1525 1525 1524 1524 1523 1523 1523 1522 1522 1522 1522 1522 1522 1522 1522 1522 1523 1523 1523 1523 1523 1523 1524 1525 1526 1527 1528
1532 1531 1530 1529 1528 1527 1526 1525 1525 1524 1523 1522 1521 1520 1520 1519 1519 1519 1518 1518 1518 1518 1518 1518 1518 1517 1518 1518 1518 1518 1517 1518 1518 1519 1520 1520 1521 1522
1529 1529 1528 1527 1525 1524 1523 1522 1521 1520 1520 1519 1518 1517 1516 1516 1515 1515 1514 1514 1514 1514 1514 1513 1513 1513 1513 1513 1513 1513 1513 1513 1514 1514 1515 1515 1516 1517
1527 1526 1526 1525 1523 1522 1520 1519 1518 1517 1516 1515 1515 1514 1513 1512 1512 1511 1511 1510 1510 1510 1510 1510 1510 1509 1509 1509 1509 1509 1509 1509 1509 1509 1510 1511 1511 1512
1524 1523 1523 1522 1521 1519 1518 1516 1515 1513 1513 1512 1511 1511 1510 1509 1509 1508 1508 1507 1507 1507 1507 1506 1506 1506 1505 1505 1505 1505 1505 1505 1505 1505 1506 1506 1507 1507
1522 1521 1520 1519 1518 1517 1515 1514 1513 1512 1510 1509 1508 1508 1507 1507 1506 1506 1505 1505 1504 1504 1504 1503 1503 1502 1502 1503 1502 1502 1502 1501 1501 1502 1502 1503 1503 1503
1519 1518 1517 1516 1515 1514 1513 1512 1511 1509 1508 1508 1506 1505 1504 1503 1503 1503 1502 1501 1501 1501 1501 1500 1500 1500 1500 1499 1499 1499 1499 1498 1498 1498 1499 1499 1500 1500
1516 1515 1514 1514 1512 1511 1511 1510 1508 1507 1506 1505 1504 1503 1502 1501 1500 1500 1499 1499 1498 1498 1498 1498 1497 1497 1497 1497 1497 1496 1496 1495 1495 1495 1495 1496 1496 1497
1513 1512 1511 1510 1510 1508 1508 1507 1506 1505 1504 1503 1502 1501 1500 1499 1498 1498 1497 1496 1495 1495 1495 1495 1494 1494 1494 1494 1494 1493 1493 1492 1492 1491 1492 1492 1492 1493
1510 1510 1509 1508 1507 1506 1505 1504 1503 1503 1502 1500 1499 1498 1498 1497 1496 1495 1495 1494 1493 1493 1493 1492 1492 1491 1491 1491 1491 1490 1490 1489 1489 1488 1488 1488 1489 1489
1507 1506 1506 1505 1504 1503 1503 1502 1501 1500 1499 1498 1497 1496 1495 1495 1494 1493 1493 1492 1492 1491 1491 1490 1490 1489 1489 1488 1488 1487 1487 1486 1486 1486 1485 1485 1486 1486
1504 1504 1503 1502 1502 1501 1501 1500 1499 1498 1497 1496 1496 1495 1494 1493 1492 1492 1491 1490 1490 1490 1489 1488 1487 1487 1486 1485 1485 1484 1484 1484 1483 1483 1482 1482 1482 1483
1502 1501 1500 1500 1499 1499 1499 1498 1497 1496 1496 1495 1494 1493 1492 1491 1490 1490 1489 1488 1488 1487 1487 1486 1486 1485 1484 1483 1482 1482 1481 1481 1480 1480 1479 1479 1479 1479
1499 1499 1498 1498 1497 1497 1496 1496 1496 1495 1494 1493 1493 1492 1491 1490 1489 1487 1487 1486 1485 1485 1485 1484 1483 1482 1481 1480 1480 1479 1479 1478 1478 1477 1477 1476 1476 1476
1497 1496 1495 1495 1495 1494 1494 1494 1494 1493 1492 1492 1491 1490 1489 1488 1487 1486 1485 1484 1483 1482 1482 1481 1480 1480 1479 1478 1477 1476 1476 1475 1475 1474 1474 1473 1473 1473
1494 1493 1493 1493 1493 1493 1492 1492 1492 1491 1491 1490 1489 1488 1487 1486 1485 1484 1483 1482 1481 1480 1479 1478 1477 1476 1476 1475 1475 1473 1473 1472 1472 1471 1471 1470 1470 1470
1492 1491 1491 1491 1491 1491 1491 1490 1490 1490 1489 1489 1488 1487 1486 1485 1484 1483 1482 1481 1479 1478 1477 1476 1475 1474 1473 1472 1472 1472 1470 1469 1469 1468 1468 1468 1467 1467
1489 1489 1489 1489 1489 1489 1489 1489 1489 1488 1487 1487 1486 1485 1485 1484 1482 1481 1480 1479 1478 1476 1475 1474 1473 1472 1471 1471 1469 1468 1468 1467 1466 1466 1465 1465 1464 1464
1486 1486 1487 1487 1487 1487 1487 1487 1487 1486 1485 1485 1484 1483 1482 1482 1480 1479 1478 1477 1476 1474 1473 1472 1471 1471 1469 1468 1467 1466 1465 1465 1464 1463 1462 1462 1461 1460
1484 1485 1485 1485 1485 1485 1485 1485 1484 1484 1483 1483 1482 1481 1480 1480 1478 1477 1476 1475 1474 1472 1471 1470 1468 1467 1467 1466 1464 1463 1462 1462 1461 1460 1460 1459 1458 1457
1482 1483 1483 1483 1483 1483 1482 1482 1482 1482 1481 1480 1480 1479 1478 1477 1476 1475 1473 1472 1471 1470 1468 1467 1466 1464 1463 1463 1462 1461 1460 1458 1457 1456 1456 1456 1455 1455